グリグ-シェレルップ彗星

26P/Grigg-Skjellerup (2013)

English version
Home page
Updated on June 11, 2016

---------------------------------------------------------------------

・ プロフィール

・ 写真集

・ 軌道要素

Epoch 2013 July 7.0 TT = JDT 2456480.5
T 2013 July 6.01688 TT                                  Kobayashi
q   1.0858598            (2000.0)            P               Q
n   0.18804106     Peri.    2.15396     -0.83337859     +0.51539995
a   3.0174095      Node   211.55251     -0.51262694     -0.85579697
e   0.6401351      Incl.   22.42378     -0.20662464     +0.04443466
P   5.24
From 565 observations 1972 Feb. 12-2014 Sept. 30, mean residual 0".8.
     Nongravitational parameters A1 = +0.01, A2 = -0.0010.

・ 星図

・ 光度変化

        H = 16.5  G = 0.15                         [    ,-122]  (              〜2013年 3月 6日)
        m1 = 16.2 + 5 logΔ +  10.0 log r(t - 20)  [-122, -25]  (2013年 3月 6日〜2013年 6月11日)
        m1 =  8.0 + 5 logΔ + 100   log r(t - 20)  [ -25,  65]  (2013年 6月11日〜2013年 9月 9日)
        m1 = 16.2 + 5 logΔ +  10.0 log r(t - 20)  [  65, 158]  (2013年 9月 9日〜2013年12月11日)
        H = 16.5  G = 0.15                         [ 158,    ]  (2013年12月11日〜               )

---------------------------------------------------------------------

軌道要素はM.P.E.C. 2015-M77に掲載されたものです。
星図はステラナビゲータ Ver.8 (アストロアーツ) で作成したものです。
光度グラフはComet for Windowsで作成したものです。

---------------------------------------------------------------------

Copyright(C) Seiichi Yoshida (comet@aerith.net). All rights reserved.